contact:dominique.lefevre@mio.osupytheas.fr, maurice.libes@osupytheas.fr, didier.mallarino@osupytheas.fr
Project:EMSO http://www.emso-fr.org/EMSO-France
Depth: 2436.0 m
Title:EMSO Ligure Ouest : Data MII capteur CSTAR
DateTime,Latitude,Longitude,Instrument_Serial,Reference_Counts,Signal_Counts,Corrected_Signal_raw_counts,Calculated_Beam_c_inverse_meters,Internal_thermistor_counts
DateTime,Latitude,Longitude,Instrument_Serial,Reference_Counts,Signal_Counts,Corrected_Signal_raw_counts,Calculated_Beam_c_inverse_meters,Internal_thermistor_counts
2019-05-28T00:01:07,42.805,6.029,CST-1368DR,9323,13043,15567,0.013,551
2019-05-28T00:04:08,42.805,6.029,CST-1368DR,9323,13044,15568,0.012,551
2019-05-28T00:07:10,42.805,6.029,CST-1368DR,9323,13041,15564,0.013,551
2019-05-28T00:10:11,42.805,6.029,CST-1368DR,9323,13041,15564,0.013,551
2019-05-28T00:13:12,42.805,6.029,CST-1368DR,9323,13045,15569,0.012,551
2019-05-28T00:16:14,42.805,6.029,CST-1368DR,9323,13044,15567,0.013,551
2019-05-28T00:19:15,42.805,6.029,CST-1368DR,9323,13043,15567,0.013,551
2019-05-28T00:22:17,42.805,6.029,CST-1368DR,9323,13045,15569,0.012,551
2019-05-28T00:25:18,42.805,6.029,CST-1368DR,9323,13044,15568,0.012,551
2019-05-28T00:28:19,42.805,6.029,CST-1368DR,9323,13042,15565,0.013,551
2019-05-28T00:31:21,42.805,6.029,CST-1368DR,9323,13042,15566,0.013,551
2019-05-28T00:34:22,42.805,6.029,CST-1368DR,9323,13044,15567,0.013,551
2019-05-28T00:37:24,42.805,6.029,CST-1368DR,9323,13043,15567,0.013,551
2019-05-28T00:40:25,42.805,6.029,CST-1368DR,9323,13043,15567,0.013,551
2019-05-28T00:43:26,42.805,6.029,CST-1368DR,9323,13040,15563,0.014,551
2019-05-28T00:46:28,42.805,6.029,CST-1368DR,9323,13043,15567,0.013,551
2019-05-28T00:49:29,42.805,6.029,CST-1368DR,9322,13038,15562,0.014,550
2019-05-28T00:52:31,42.805,6.029,CST-1368DR,9322,13043,15568,0.012,551
2019-05-28T00:55:32,42.805,6.029,CST-1368DR,9322,13045,15570,0.012,551
2019-05-28T00:58:33,42.805,6.029,CST-1368DR,9322,13043,15568,0.012,551
2019-05-28T01:01:35,42.805,6.029,CST-1368DR,9322,13044,15569,0.012,551
2019-05-28T01:04:36,42.805,6.029,CST-1368DR,9322,13042,15567,0.013,551
2019-05-28T01:07:38,42.805,6.029,CST-1368DR,9322,13042,15567,0.013,550
2019-05-28T01:10:39,42.805,6.029,CST-1368DR,9322,13041,15565,0.013,551
2019-05-28T01:13:41,42.805,6.029,CST-1368DR,9322,13043,15569,0.012,551
2019-05-28T01:16:42,42.805,6.029,CST-1368DR,9322,13042,15567,0.013,551
2019-05-28T01:19:43,42.805,6.029,CST-1368DR,9322,13041,15566,0.013,551
2019-05-28T01:22:45,42.805,6.029,CST-1368DR,9322,13041,15566,0.013,551
2019-05-28T01:25:46,42.805,6.029,CST-1368DR,9322,13043,15568,0.012,551
2019-05-28T01:28:48,42.805,6.029,CST-1368DR,9322,13044,15569,0.012,551
2019-05-28T01:31:49,42.805,6.029,CST-1368DR,9322,13043,15569,0.012,551
2019-05-28T01:34:50,42.805,6.029,CST-1368DR,9322,13043,15568,0.012,551
2019-05-28T01:37:52,42.805,6.029,CST-1368DR,9322,13044,15569,0.012,550
2019-05-28T01:40:53,42.805,6.029,CST-1368DR,9322,13042,15567,0.013,551
2019-05-28T01:43:55,42.805,6.029,CST-1368DR,9322,13042,15567,0.013,551
2019-05-28T01:46:56,42.805,6.029,CST-1368DR,9322,13043,15568,0.012,551
2019-05-28T01:49:57,42.805,6.029,CST-1368DR,9322,13041,15566,0.013,550
2019-05-28T01:52:59,42.805,6.029,CST-1368DR,9322,13041,15566,0.013,550
2019-05-28T01:56:00,42.805,6.029,CST-1368DR,9322,13043,15568,0.012,550
2019-05-28T01:59:02,42.805,6.029,CST-1368DR,9322,13040,15565,0.013,551
2019-05-28T02:02:03,42.805,6.029,CST-1368DR,9322,13041,15566,0.013,551
2019-05-28T02:05:05,42.805,6.029,CST-1368DR,9322,13041,15566,0.013,551
2019-05-28T02:08:06,42.805,6.029,CST-1368DR,9321,13039,15565,0.013,551
2019-05-28T02:11:07,42.805,6.029,CST-1368DR,9321,13041,15567,0.013,551
2019-05-28T02:14:09,42.805,6.029,CST-1368DR,9321,13043,15569,0.012,551
2019-05-28T02:17:10,42.805,6.029,CST-1368DR,9321,13043,15570,0.012,551
2019-05-28T02:20:12,42.805,6.029,CST-1368DR,9321,13041,15567,0.013,551
2019-05-28T02:23:13,42.805,6.029,CST-1368DR,9321,13042,15569,0.012,550
2019-05-28T02:26:14,42.805,6.029,CST-1368DR,9321,13044,15570,0.012,551
2019-05-28T02:29:16,42.805,6.029,CST-1368DR,9321,13043,15570,0.012,550
2019-05-28T02:32:17,42.805,6.029,CST-1368DR,9321,13043,15569,0.012,551
2019-05-28T02:35:19,42.805,6.029,CST-1368DR,9321,13043,15570,0.012,551
2019-05-28T02:38:20,42.805,6.029,CST-1368DR,9321,13042,15569,0.012,551
2019-05-28T02:41:21,42.805,6.029,CST-1368DR,9321,13041,15567,0.013,551
2019-05-28T02:44:23,42.805,6.029,CST-1368DR,9321,13043,15570,0.012,551
2019-05-28T02:47:24,42.805,6.029,CST-1368DR,9321,13043,15570,0.012,551
2019-05-28T02:50:26,42.805,6.029,CST-1368DR,9321,13042,15569,0.012,551
2019-05-28T02:53:27,42.805,6.029,CST-1368DR,9321,13043,15569,0.012,551
2019-05-28T02:56:28,42.805,6.029,CST-1368DR,9321,13042,15569,0.012,551
2019-05-28T02:59:30,42.805,6.029,CST-1368DR,9321,13037,15562,0.014,550
2019-05-28T03:02:31,42.805,6.029,CST-1368DR,9321,13042,15569,0.012,551
2019-05-28T03:05:33,42.805,6.029,CST-1368DR,9321,13038,15564,0.013,551
2019-05-28T03:08:34,42.805,6.029,CST-1368DR,9321,13040,15566,0.013,551
2019-05-28T03:11:36,42.805,6.029,CST-1368DR,9321,13037,15563,0.014,551
2019-05-28T03:14:37,42.805,6.029,CST-1368DR,9321,13035,15560,0.014,551
2019-05-28T03:17:38,42.805,6.029,CST-1368DR,9321,13041,15567,0.013,551
2019-05-28T03:20:40,42.805,6.029,CST-1368DR,9321,13041,15568,0.012,550
2019-05-28T03:23:41,42.805,6.029,CST-1368DR,9321,13042,15569,0.012,551
2019-05-28T03:26:43,42.805,6.029,CST-1368DR,9321,13042,15569,0.012,549
2019-05-28T03:29:44,42.805,6.029,CST-1368DR,9321,13035,15561,0.014,551
2019-05-28T03:32:45,42.805,6.029,CST-1368DR,9320,13042,15570,0.012,551
2019-05-28T03:35:47,42.805,6.029,CST-1368DR,9320,13037,15565,0.013,551
2019-05-28T03:38:48,42.805,6.029,CST-1368DR,9320,13042,15570,0.012,551
2019-05-28T03:41:50,42.805,6.029,CST-1368DR,9320,13043,15571,0.012,550
2019-05-28T03:44:51,42.805,6.029,CST-1368DR,9320,13041,15568,0.012,551
2019-05-28T03:47:52,42.805,6.029,CST-1368DR,9320,13039,15566,0.013,551
2019-05-28T03:50:54,42.805,6.029,CST-1368DR,9320,13042,15570,0.012,551
2019-05-28T03:53:55,42.805,6.029,CST-1368DR,9320,13036,15563,0.014,551
2019-05-28T03:56:57,42.805,6.029,CST-1368DR,9320,13042,15571,0.012,551
2019-05-28T03:59:58,42.805,6.029,CST-1368DR,9320,13041,15568,0.012,551
2019-05-28T04:02:59,42.805,6.029,CST-1368DR,9320,13043,15571,0.012,551
2019-05-28T04:06:01,42.805,6.029,CST-1368DR,9320,13042,15570,0.012,551
2019-05-28T04:09:02,42.805,6.029,CST-1368DR,9320,13042,15570,0.012,551
2019-05-28T04:12:04,42.805,6.029,CST-1368DR,9320,13039,15566,0.013,550
2019-05-28T04:15:05,42.805,6.029,CST-1368DR,9320,13042,15570,0.012,551
2019-05-28T04:18:07,42.805,6.029,CST-1368DR,9320,13040,15567,0.013,551
2019-05-28T04:21:08,42.805,6.029,CST-1368DR,9320,13040,15567,0.013,551
2019-05-28T04:24:09,42.805,6.029,CST-1368DR,9320,13041,15569,0.012,551
2019-05-28T04:27:11,42.805,6.029,CST-1368DR,9320,13041,15569,0.012,551
2019-05-28T04:30:12,42.805,6.029,CST-1368DR,9320,13041,15569,0.012,551
2019-05-28T04:33:14,42.805,6.029,CST-1368DR,9320,13041,15569,0.012,551
2019-05-28T04:36:15,42.805,6.029,CST-1368DR,9319,13017,15542,0.019,550
2019-05-28T04:39:16,42.805,6.029,CST-1368DR,9319,12999,15520,0.025,550
2019-05-28T04:42:18,42.805,6.029,CST-1368DR,9319,13012,15536,0.021,551
2019-05-28T04:45:19,42.805,6.029,CST-1368DR,9319,13020,15545,0.018,551
2019-05-28T04:48:21,42.805,6.029,CST-1368DR,9319,13001,15523,0.024,550
2019-05-28T04:51:22,42.805,6.029,CST-1368DR,9319,13009,15533,0.021,551
2019-05-28T04:54:23,42.805,6.029,CST-1368DR,9319,13025,15551,0.017,551
2019-05-28T04:57:25,42.805,6.029,CST-1368DR,9319,13028,15555,0.016,551
2019-05-28T05:00:26,42.805,6.029,CST-1368DR,9319,13014,15538,0.020,551
2019-05-28T05:03:28,42.805,6.029,CST-1368DR,9319,13039,15568,0.012,551
2019-05-28T05:06:29,42.805,6.029,CST-1368DR,9318,12958,15473,0.037,551
2019-05-28T05:09:31,42.805,6.029,CST-1368DR,9318,12933,15443,0.045,551
2019-05-28T05:12:32,42.805,6.029,CST-1368DR,9319,12986,15504,0.029,551
2019-05-28T05:15:33,42.805,6.029,CST-1368DR,9319,13009,15532,0.022,551
2019-05-28T05:18:35,42.805,6.029,CST-1368DR,9319,12996,15517,0.025,551
2019-05-28T05:21:36,42.805,6.029,CST-1368DR,9319,13015,15539,0.020,551
2019-05-28T05:24:38,42.805,6.029,CST-1368DR,9319,13026,15552,0.016,551
2019-05-28T05:27:39,42.805,6.029,CST-1368DR,9319,13007,15530,0.022,551
2019-05-28T05:30:40,42.805,6.029,CST-1368DR,9318,12969,15486,0.033,550
2019-05-28T05:33:42,42.805,6.029,CST-1368DR,9319,13022,15548,0.017,550
2019-05-28T05:36:43,42.805,6.029,CST-1368DR,9318,13017,15543,0.019,551
2019-05-28T05:39:45,42.805,6.029,CST-1368DR,9318,12998,15521,0.024,550
2019-05-28T05:42:46,42.805,6.029,CST-1368DR,9318,12985,15505,0.029,551
2019-05-28T05:45:47,42.805,6.029,CST-1368DR,9317,12970,15489,0.033,550
2019-05-28T05:48:49,42.805,6.029,CST-1368DR,9318,13006,15531,0.022,551
2019-05-28T05:51:50,42.805,6.029,CST-1368DR,9318,13022,15549,0.017,550
2019-05-28T05:54:52,42.805,6.029,CST-1368DR,9318,13027,15555,0.016,551
2019-05-28T05:57:53,42.805,6.029,CST-1368DR,9318,13001,15525,0.023,551
2019-05-28T06:00:54,42.805,6.029,CST-1368DR,9318,13028,15556,0.015,550
2019-05-28T06:03:56,42.805,6.029,CST-1368DR,9318,12977,15496,0.031,550
2019-05-28T06:06:57,42.805,6.029,CST-1368DR,9318,12979,15498,0.030,550
2019-05-28T06:09:59,42.805,6.029,CST-1368DR,9318,13017,15544,0.018,550
2019-05-28T06:13:00,42.805,6.029,CST-1368DR,9318,13002,15525,0.023,550
2019-05-28T06:16:02,42.805,6.029,CST-1368DR,9318,13019,15545,0.018,550
2019-05-28T06:19:03,42.805,6.029,CST-1368DR,9317,12965,15483,0.034,550
2019-05-28T06:22:04,42.805,6.029,CST-1368DR,9318,13025,15552,0.016,551
2019-05-28T06:25:06,42.805,6.029,CST-1368DR,9318,13001,15525,0.023,550
2019-05-28T06:28:07,42.805,6.029,CST-1368DR,9318,13009,15534,0.021,551
2019-05-28T06:31:09,42.805,6.029,CST-1368DR,9318,13007,15532,0.022,551
2019-05-28T06:34:10,42.805,6.029,CST-1368DR,9318,13005,15528,0.023,551
2019-05-28T06:37:11,42.805,6.029,CST-1368DR,9318,13033,15563,0.014,551
2019-05-28T06:40:13,42.805,6.029,CST-1368DR,9317,12975,15495,0.031,551
2019-05-28T06:43:14,42.805,6.029,CST-1368DR,9318,13035,15565,0.013,551
2019-05-28T06:46:16,42.805,6.029,CST-1368DR,9318,13012,15537,0.020,551
2019-05-28T06:49:17,42.805,6.029,CST-1368DR,9318,13004,15528,0.023,550
2019-05-28T06:52:18,42.805,6.029,CST-1368DR,9318,13021,15548,0.017,551
2019-05-28T06:55:20,42.805,6.029,CST-1368DR,9318,13020,15547,0.018,551
2019-05-28T06:58:21,42.805,6.029,CST-1368DR,9318,13026,15554,0.016,551
2019-05-28T07:01:23,42.805,6.029,CST-1368DR,9318,13023,15550,0.017,551
2019-05-28T07:04:24,42.805,6.029,CST-1368DR,9318,13029,15557,0.015,550
2019-05-28T07:07:25,42.805,6.029,CST-1368DR,9317,12999,15523,0.024,550
2019-05-28T07:10:27,42.805,6.029,CST-1368DR,9317,13021,15550,0.017,551
2019-05-28T07:13:28,42.805,6.029,CST-1368DR,9318,13023,15551,0.017,551
2019-05-28T07:16:30,42.805,6.029,CST-1368DR,9317,13021,15549,0.017,551
2019-05-28T07:19:31,42.805,6.029,CST-1368DR,9317,13024,15553,0.016,551
2019-05-28T07:22:33,42.805,6.029,CST-1368DR,9317,13018,15546,0.018,551
2019-05-28T07:25:34,42.805,6.029,CST-1368DR,9317,13026,15555,0.016,551
2019-05-28T07:28:35,42.805,6.029,CST-1368DR,9317,13011,15537,0.020,551
2019-05-28T07:31:37,42.805,6.029,CST-1368DR,9317,13014,15542,0.019,551
2019-05-28T07:34:38,42.805,6.029,CST-1368DR,9316,13008,15535,0.021,551
2019-05-28T07:37:40,42.805,6.029,CST-1368DR,9317,13023,15552,0.016,550
2019-05-28T07:40:41,42.805,6.029,CST-1368DR,9317,13028,15558,0.015,551
2019-05-28T07:43:42,42.805,6.029,CST-1368DR,9317,13019,15547,0.018,551
2019-05-28T07:46:44,42.805,6.029,CST-1368DR,9317,13028,15558,0.015,550
2019-05-28T07:49:45,42.805,6.029,CST-1368DR,9317,13025,15554,0.016,550
2019-05-28T07:52:47,42.805,6.029,CST-1368DR,9317,13029,15559,0.015,551
2019-05-28T07:55:48,42.805,6.029,CST-1368DR,9317,13027,15557,0.015,551
2019-05-28T07:58:49,42.805,6.029,CST-1368DR,9317,13019,15547,0.018,551
2019-05-28T08:01:51,42.805,6.029,CST-1368DR,9317,13029,15559,0.015,551
2019-05-28T08:04:52,42.805,6.029,CST-1368DR,9317,13009,15535,0.021,550
2019-05-28T08:07:54,42.805,6.029,CST-1368DR,9317,13021,15550,0.017,551
2019-05-28T08:10:55,42.805,6.029,CST-1368DR,9317,13026,15555,0.016,551
2019-05-28T08:13:57,42.805,6.029,CST-1368DR,9317,13027,15557,0.015,550
2019-05-28T08:16:58,42.805,6.029,CST-1368DR,9317,13033,15564,0.013,551
2019-05-28T08:19:59,42.805,6.029,CST-1368DR,9318,13035,15565,0.013,551
2019-05-28T08:23:01,42.805,6.029,CST-1368DR,9318,13031,15560,0.014,551
2019-05-28T08:26:02,42.805,6.029,CST-1368DR,9318,13032,15561,0.014,551
2019-05-28T08:29:04,42.805,6.029,CST-1368DR,9318,13034,15564,0.013,551
2019-05-28T08:32:05,42.805,6.029,CST-1368DR,9317,13037,15568,0.012,551
2019-05-28T08:35:06,42.805,6.029,CST-1368DR,9317,13037,15568,0.012,551
2019-05-28T08:38:08,42.805,6.029,CST-1368DR,9317,13037,15568,0.012,551
2019-05-28T08:41:09,42.805,6.029,CST-1368DR,9317,13035,15566,0.013,551
2019-05-28T08:44:11,42.805,6.029,CST-1368DR,9317,13033,15564,0.013,551
2019-05-28T08:47:12,42.805,6.029,CST-1368DR,9317,13028,15558,0.015,551
2019-05-28T08:50:13,42.805,6.029,CST-1368DR,9317,13033,15564,0.013,551
2019-05-28T08:53:15,42.805,6.029,CST-1368DR,9317,13036,15567,0.013,551
2019-05-28T08:56:16,42.805,6.029,CST-1368DR,9317,13035,15566,0.013,551
2019-05-28T08:59:18,42.805,6.029,CST-1368DR,9317,13036,15567,0.013,551
2019-05-28T09:02:19,42.805,6.029,CST-1368DR,9317,13034,15565,0.013,551
2019-05-28T09:05:20,42.805,6.029,CST-1368DR,9317,13026,15556,0.015,550
2019-05-28T09:08:22,42.805,6.029,CST-1368DR,9317,13036,15568,0.012,551
2019-05-28T09:11:23,42.805,6.029,CST-1368DR,9317,13033,15564,0.013,551
2019-05-28T09:14:25,42.805,6.029,CST-1368DR,9317,13035,15566,0.013,550
2019-05-28T09:17:26,42.805,6.029,CST-1368DR,9317,13036,15567,0.013,551
2019-05-28T09:20:28,42.805,6.029,CST-1368DR,9317,13037,15568,0.012,551
2019-05-28T09:23:29,42.805,6.029,CST-1368DR,9317,13036,15568,0.012,551
2019-05-28T09:26:30,42.805,6.029,CST-1368DR,9317,13038,15569,0.012,550
2019-05-28T09:29:32,42.805,6.029,CST-1368DR,9317,13035,15566,0.013,551
2019-05-28T09:32:33,42.805,6.029,CST-1368DR,9317,13033,15564,0.013,551
2019-05-28T09:35:35,42.805,6.029,CST-1368DR,9317,13035,15566,0.013,551
2019-05-28T09:38:36,42.805,6.029,CST-1368DR,9317,13031,15562,0.014,551
2019-05-28T09:41:37,42.805,6.029,CST-1368DR,9316,13031,15563,0.014,551
2019-05-28T09:44:39,42.805,6.029,CST-1368DR,9317,13035,15566,0.013,551
2019-05-28T09:47:40,42.805,6.029,CST-1368DR,9317,13034,15566,0.013,551
2019-05-28T09:50:42,42.805,6.029,CST-1368DR,9317,13033,15563,0.014,551
2019-05-28T09:53:43,42.805,6.029,CST-1368DR,9317,13029,15559,0.015,551
2019-05-28T09:56:44,42.805,6.029,CST-1368DR,9317,13035,15566,0.013,551
2019-05-28T09:59:46,42.805,6.029,CST-1368DR,9317,13035,15566,0.013,551
2019-05-28T10:02:47,42.805,6.029,CST-1368DR,9317,13036,15568,0.012,551
2019-05-28T10:05:49,42.805,6.029,CST-1368DR,9317,13032,15563,0.014,551
2019-05-28T10:08:50,42.805,6.029,CST-1368DR,9317,13033,15563,0.014,551
2019-05-28T10:11:52,42.805,6.029,CST-1368DR,9317,13037,15569,0.012,551
2019-05-28T10:14:53,42.805,6.029,CST-1368DR,9316,13031,15563,0.014,551
2019-05-28T10:17:54,42.805,6.029,CST-1368DR,9317,13036,15567,0.013,551
2019-05-28T10:20:56,42.805,6.029,CST-1368DR,9316,13036,15569,0.012,551
2019-05-28T10:23:57,42.805,6.029,CST-1368DR,9317,13034,15565,0.013,551
2019-05-28T10:26:59,42.805,6.029,CST-1368DR,9317,13035,15567,0.013,551
2019-05-28T10:30:00,42.805,6.029,CST-1368DR,9316,13037,15570,0.012,551
2019-05-28T10:33:01,42.805,6.029,CST-1368DR,9317,13036,15568,0.012,551
2019-05-28T10:36:03,42.805,6.029,CST-1368DR,9316,13033,15566,0.013,551
2019-05-28T10:39:04,42.805,6.029,CST-1368DR,9316,13028,15559,0.015,551
2019-05-28T10:42:06,42.805,6.029,CST-1368DR,9316,13034,15567,0.013,550
2019-05-28T10:45:07,42.805,6.029,CST-1368DR,9316,13034,15567,0.013,551
2019-05-28T10:48:08,42.805,6.029,CST-1368DR,9316,13035,15568,0.012,551
2019-05-28T10:51:10,42.805,6.029,CST-1368DR,9316,13034,15567,0.013,551
2019-05-28T10:54:11,42.805,6.029,CST-1368DR,9316,13036,15569,0.012,551
2019-05-28T10:57:13,42.805,6.029,CST-1368DR,9316,13032,15564,0.013,551
2019-05-28T11:00:14,42.805,6.029,CST-1368DR,9316,13034,15567,0.013,551
2019-05-28T11:03:15,42.805,6.029,CST-1368DR,9316,13034,15567,0.013,550
2019-05-28T11:06:17,42.805,6.029,CST-1368DR,9316,13035,15567,0.013,551
2019-05-28T11:09:18,42.805,6.029,CST-1368DR,9316,13032,15564,0.013,551
2019-05-28T11:12:20,42.805,6.029,CST-1368DR,9316,13034,15566,0.013,551
2019-05-28T11:15:21,42.805,6.029,CST-1368DR,9316,13033,15565,0.013,551
2019-05-28T11:18:23,42.805,6.029,CST-1368DR,9316,13035,15567,0.013,551
2019-05-28T11:21:24,42.805,6.029,CST-1368DR,9316,13032,15564,0.013,551
2019-05-28T11:24:25,42.805,6.029,CST-1368DR,9316,13034,15567,0.013,551
2019-05-28T11:27:27,42.805,6.029,CST-1368DR,9316,13035,15567,0.013,551
2019-05-28T11:30:28,42.805,6.029,CST-1368DR,9316,13028,15560,0.014,550
2019-05-28T11:33:30,42.805,6.029,CST-1368DR,9316,13033,15565,0.013,551
2019-05-28T11:36:31,42.805,6.029,CST-1368DR,9316,13035,15567,0.013,551
2019-05-28T11:39:32,42.805,6.029,CST-1368DR,9316,13033,15566,0.013,551
2019-05-28T11:42:34,42.805,6.029,CST-1368DR,9316,13034,15566,0.013,551
2019-05-28T11:45:35,42.805,6.029,CST-1368DR,9316,13034,15566,0.013,551
2019-05-28T11:48:37,42.805,6.029,CST-1368DR,9315,13034,15568,0.012,551
2019-05-28T11:51:38,42.805,6.029,CST-1368DR,9315,13033,15567,0.013,551
2019-05-28T11:54:39,42.805,6.029,CST-1368DR,9315,13031,15565,0.013,551
2019-05-28T11:57:41,42.805,6.029,CST-1368DR,9315,13032,15565,0.013,551
2019-05-28T12:00:42,42.805,6.029,CST-1368DR,9315,13032,15566,0.013,551
2019-05-28T12:03:44,42.805,6.029,CST-1368DR,9315,13032,15566,0.013,551
2019-05-28T12:06:45,42.805,6.029,CST-1368DR,9315,13032,15566,0.013,550
2019-05-28T12:09:47,42.805,6.029,CST-1368DR,9315,13032,15566,0.013,551
2019-05-28T12:12:48,42.805,6.029,CST-1368DR,9315,13031,15565,0.013,551
2019-05-28T12:15:49,42.805,6.029,CST-1368DR,9315,13031,15565,0.013,551
2019-05-28T12:18:51,42.805,6.029,CST-1368DR,9315,13032,15566,0.013,551
2019-05-28T12:21:52,42.805,6.029,CST-1368DR,9315,13031,15565,0.013,550
2019-05-28T12:24:54,42.805,6.029,CST-1368DR,9315,13028,15561,0.014,551
2019-05-28T12:27:55,42.805,6.029,CST-1368DR,9315,13033,15567,0.013,551
2019-05-28T12:30:56,42.805,6.029,CST-1368DR,9315,13032,15566,0.013,551
2019-05-28T12:33:58,42.805,6.029,CST-1368DR,9315,13032,15566,0.013,551
2019-05-28T12:36:59,42.805,6.029,CST-1368DR,9315,13034,15569,0.012,551
2019-05-28T12:40:01,42.805,6.029,CST-1368DR,9315,13033,15567,0.013,551
2019-05-28T12:43:02,42.805,6.029,CST-1368DR,9315,13031,15565,0.013,550
2019-05-28T12:46:03,42.805,6.029,CST-1368DR,9315,13030,15563,0.014,551
2019-05-28T12:49:05,42.805,6.029,CST-1368DR,9315,13030,15563,0.014,551
2019-05-28T12:52:06,42.805,6.029,CST-1368DR,9315,13032,15566,0.013,551
2019-05-28T12:55:08,42.805,6.029,CST-1368DR,9315,13031,15564,0.013,551
2019-05-28T12:58:09,42.805,6.029,CST-1368DR,9315,13032,15565,0.013,551
2019-05-28T13:01:10,42.805,6.029,CST-1368DR,9315,13030,15563,0.014,551
2019-05-28T13:04:12,42.805,6.029,CST-1368DR,9315,13031,15565,0.013,551
2019-05-28T13:07:13,42.805,6.029,CST-1368DR,9315,13033,15567,0.013,551
2019-05-28T13:10:15,42.805,6.029,CST-1368DR,9315,13032,15566,0.013,551
2019-05-28T13:13:16,42.805,6.029,CST-1368DR,9315,13033,15567,0.013,551
2019-05-28T13:16:18,42.805,6.029,CST-1368DR,9315,13033,15567,0.013,551
2019-05-28T13:19:19,42.805,6.029,CST-1368DR,9315,13034,15569,0.012,551
2019-05-28T13:22:20,42.805,6.029,CST-1368DR,9315,13034,15569,0.012,551
2019-05-28T13:25:22,42.805,6.029,CST-1368DR,9314,13034,15570,0.012,551
2019-05-28T13:28:23,42.805,6.029,CST-1368DR,9314,13032,15567,0.013,551
2019-05-28T13:31:25,42.805,6.029,CST-1368DR,9314,13032,15567,0.013,551
2019-05-28T13:34:26,42.805,6.029,CST-1368DR,9314,13032,15567,0.013,551
2019-05-28T13:37:27,42.805,6.029,CST-1368DR,9314,13033,15569,0.012,551
2019-05-28T13:40:29,42.805,6.029,CST-1368DR,9314,13033,15568,0.012,551
2019-05-28T13:43:30,42.805,6.029,CST-1368DR,9314,13033,15569,0.012,551
2019-05-28T13:46:32,42.805,6.029,CST-1368DR,9314,13033,15568,0.012,551
2019-05-28T13:49:33,42.805,6.029,CST-1368DR,9314,13033,15569,0.012,551
2019-05-28T13:52:34,42.805,6.029,CST-1368DR,9314,13032,15568,0.012,551
2019-05-28T13:55:36,42.805,6.029,CST-1368DR,9314,13032,15567,0.013,551
2019-05-28T13:58:37,42.805,6.029,CST-1368DR,9314,13033,15568,0.012,551
2019-05-28T14:01:39,42.805,6.029,CST-1368DR,9314,13033,15568,0.012,551
2019-05-28T14:04:40,42.805,6.029,CST-1368DR,9314,13029,15564,0.013,551
2019-05-28T14:07:42,42.805,6.029,CST-1368DR,9314,13032,15568,0.012,551
2019-05-28T14:10:43,42.805,6.029,CST-1368DR,9314,13031,15567,0.013,551
2019-05-28T14:13:44,42.805,6.029,CST-1368DR,9314,13032,15567,0.013,551
2019-05-28T14:16:46,42.805,6.029,CST-1368DR,9314,13027,15561,0.014,551
2019-05-28T14:19:47,42.805,6.029,CST-1368DR,9314,13033,15568,0.012,550
2019-05-28T14:22:49,42.805,6.029,CST-1368DR,9314,13033,15569,0.012,551
2019-05-28T14:25:50,42.805,6.029,CST-1368DR,9314,13033,15569,0.012,551
2019-05-28T14:28:51,42.805,6.029,CST-1368DR,9314,13033,15568,0.012,551
2019-05-28T14:31:53,42.805,6.029,CST-1368DR,9314,13032,15567,0.013,551
2019-05-28T14:34:54,42.805,6.029,CST-1368DR,9314,13033,15569,0.012,551
2019-05-28T14:37:56,42.805,6.029,CST-1368DR,9314,13033,15569,0.012,551
2019-05-28T14:40:57,42.805,6.029,CST-1368DR,9313,13031,15567,0.013,551
2019-05-28T14:43:58,42.805,6.029,CST-1368DR,9314,13032,15567,0.013,551
2019-05-28T14:47:00,42.805,6.029,CST-1368DR,9313,13031,15567,0.013,551
2019-05-28T14:50:01,42.805,6.029,CST-1368DR,9313,13033,15570,0.012,551
2019-05-28T14:53:03,42.805,6.029,CST-1368DR,9313,13031,15568,0.012,551
2019-05-28T14:56:04,42.805,6.029,CST-1368DR,9313,13032,15569,0.012,551
2019-05-28T14:59:05,42.805,6.029,CST-1368DR,9313,13032,15568,0.012,551
2019-05-28T15:02:07,42.805,6.029,CST-1368DR,9313,13032,15569,0.012,551
2019-05-28T15:05:08,42.805,6.029,CST-1368DR,9313,13031,15567,0.013,551
2019-05-28T15:08:10,42.805,6.029,CST-1368DR,9313,13033,15570,0.012,551
2019-05-28T15:11:11,42.805,6.029,CST-1368DR,9313,13033,15570,0.012,551
2019-05-28T15:14:13,42.805,6.029,CST-1368DR,9313,13032,15569,0.012,551
2019-05-28T15:17:14,42.805,6.029,CST-1368DR,9313,13031,15567,0.013,551
2019-05-28T15:20:15,42.805,6.029,CST-1368DR,9313,13032,15569,0.012,551
2019-05-28T15:23:17,42.805,6.029,CST-1368DR,9313,13031,15568,0.012,551
2019-05-28T15:26:18,42.805,6.029,CST-1368DR,9313,13032,15569,0.012,551
2019-05-28T15:29:20,42.805,6.029,CST-1368DR,9313,13031,15568,0.012,551
2019-05-28T15:32:21,42.805,6.029,CST-1368DR,9313,13031,15568,0.012,551
2019-05-28T15:35:22,42.805,6.029,CST-1368DR,9313,13032,15569,0.012,551
2019-05-28T15:38:24,42.805,6.029,CST-1368DR,9313,13032,15569,0.012,551
2019-05-28T15:41:25,42.805,6.029,CST-1368DR,9313,13030,15567,0.013,551
2019-05-28T15:44:27,42.805,6.029,CST-1368DR,9313,13031,15568,0.012,551
2019-05-28T15:47:28,42.805,6.029,CST-1368DR,9313,13030,15566,0.013,551
2019-05-28T15:50:29,42.805,6.029,CST-1368DR,9313,13032,15569,0.012,551
2019-05-28T15:53:31,42.805,6.029,CST-1368DR,9313,13032,15568,0.012,551
2019-05-28T15:56:32,42.805,6.029,CST-1368DR,9313,13032,15568,0.012,551
2019-05-28T15:59:34,42.805,6.029,CST-1368DR,9313,13028,15564,0.013,551
2019-05-28T16:02:35,42.805,6.029,CST-1368DR,9313,13032,15568,0.012,551
2019-05-28T16:05:36,42.805,6.029,CST-1368DR,9313,13031,15567,0.013,550
2019-05-28T16:08:38,42.805,6.029,CST-1368DR,9313,13031,15567,0.013,551
2019-05-28T16:11:39,42.805,6.029,CST-1368DR,9313,13031,15567,0.013,551
2019-05-28T16:14:41,42.805,6.029,CST-1368DR,9313,13032,15569,0.012,551
2019-05-28T16:17:42,42.805,6.029,CST-1368DR,9312,13031,15569,0.012,551
2019-05-28T16:20:44,42.805,6.029,CST-1368DR,9312,13032,15570,0.012,551
2019-05-28T16:23:45,42.805,6.029,CST-1368DR,9312,13027,15565,0.013,551
2019-05-28T16:26:46,42.805,6.029,CST-1368DR,9312,13031,15569,0.012,551
2019-05-28T16:29:48,42.805,6.029,CST-1368DR,9312,13030,15568,0.012,551
2019-05-28T16:32:49,42.805,6.029,CST-1368DR,9312,13031,15569,0.012,551
2019-05-28T16:35:51,42.805,6.029,CST-1368DR,9312,13031,15570,0.012,551